Theta_e
326 325 326 327 327 327 325 320 316 316 317 316 314 313 314 315 315 315 314 314 313 311 310 309 309 310 311 313 316 316 315 318 321 321 321 321 320 320 321 321 321 319 316 315 315 315 315 315 315 315 316 317 317 317 319 319 316 315 313 313 312 311 311 310 310 311 311 310 311 311 310 309 309 310 310 310 309 309 309 309 309 309 309 308 309
327 326 326 328 328 328 324 319 318 318 318 318 315 313 314 314 315 314 313 312 310 308 307 307 307 308 309 311 315 317 315 317 319 319 319 321 321 321 321 319 319 318 314 313 313 313 314 314 315 315 315 316 316 316 319 319 317 316 315 314 313 312 311 310 309 311 312 311 312 312 311 310 310 310 310 310 310 310 310 310 310 310 309 309 309
329 327 327 328 328 327 323 320 320 319 319 319 317 314 314 314 314 314 311 310 309 308 308 307 307 307 308 312 316 318 317 316 317 318 317 317 319 320 321 319 318 318 316 315 314 313 313 313 314 315 315 315 315 315 317 317 316 315 314 314 314 313 312 311 309 312 314 313 313 313 312 311 311 311 311 310 310 310 310 310 310 310 310 309 309
328 328 328 327 326 325 323 321 321 320 320 320 319 316 314 314 316 314 310 309 309 308 308 308 307 306 308 312 316 317 317 315 316 317 316 315 315 315 317 320 319 319 318 317 315 313 312 313 314 314 314 315 315 314 315 314 314 314 314 314 314 313 313 311 310 312 315 314 313 314 312 311 312 312 311 311 310 310 309 309 310 310 310 310 310
328 328 327 326 325 324 322 321 322 321 321 321 321 318 316 316 316 313 309 309 309 308 308 308 306 305 306 310 314 315 315 314 314 316 316 316 314 309 309 314 316 316 316 314 311 310 310 311 313 314 314 314 314 314 314 314 314 314 314 314 314 314 313 311 311 313 315 314 314 314 313 312 312 313 312 312 311 310 310 310 310 310 310 310 310
327 328 326 325 324 323 323 322 321 322 322 322 321 318 315 315 314 311 309 310 309 308 308 308 307 306 306 308 310 312 313 312 313 314 314 314 312 307 304 306 309 310 311 310 309 308 308 309 311 313 314 314 314 314 313 313 313 313 314 314 314 314 313 312 313 314 315 314 314 314 313 313 313 313 313 313 312 311 310 310 310 309 310 310 310
326 325 324 323 321 320 321 321 321 322 323 322 320 317 314 312 310 310 311 310 308 308 309 309 309 310 310 309 307 308 310 310 310 310 311 310 308 304 304 304 306 308 310 311 310 310 310 310 310 311 312 312 312 312 311 311 312 313 314 314 314 314 314 313 314 314 314 314 314 314 314 314 314 314 314 313 313 312 312 311 310 310 310 310 310
326 324 321 320 319 318 319 322 323 323 322 321 320 318 314 310 309 311 311 308 307 309 310 311 311 311 312 311 308 306 306 308 308 307 307 306 305 304 305 306 307 310 311 311 312 312 311 311 310 310 310 310 311 311 311 311 312 313 314 314 314 315 314 314 314 314 314 314 314 314 314 314 314 314 314 313 313 313 313 312 311 311 310 310 310
325 323 321 320 318 318 321 325 324 322 322 320 319 317 313 310 310 310 309 308 309 311 312 312 312 312 312 312 311 310 308 307 307 307 307 306 305 306 307 308 309 310 311 311 311 311 311 311 311 311 310 310 310 311 312 312 313 313 314 314 314 314 315 314 314 314 314 314 314 314 314 314 314 314 314 314 314 314 313 313 312 311 311 311 311
325 324 322 320 319 319 322 324 323 321 321 319 317 316 312 309 310 310 309 310 312 314 314 313 313 313 313 313 313 313 312 311 309 307 307 308 308 308 309 310 310 311 311 311 311 311 310 310 310 310 310 310 310 310 312 312 313 313 314 314 314 315 315 315 314 315 314 314 314 314 314 314 314 314 314 314 314 314 314 313 313 312 311 311 311
324 323 322 319 319 321 322 322 322 321 319 318 317 317 314 311 311 312 312 312 314 314 315 315 314 313 313 313 314 314 314 314 313 311 309 308 309 310 310 311 312 312 311 311 310 310 310 310 310 310 310 310 310 310 311 312 313 313 313 314 315 315 315 315 315 315 315 315 315 314 314 314 314 314 314 314 314 314 314 314 313 312 312 312 311
323 322 321 320 321 322 322 322 321 319 318 319 319 319 317 315 315 315 315 315 315 315 315 316 315 313 313 313 314 314 314 314 314 314 313 311 310 310 310 311 312 313 312 312 312 311 311 311 310 310 310 310 310 311 312 313 314 314 314 315 315 316 315 315 316 316 316 316 315 315 315 315 315 314 314 314 314 314 314 313 313 312 312 311 311
321 321 322 322 322 321 321 321 320 319 320 321 321 320 319 319 318 317 317 318 318 317 316 316 316 315 314 314 314 314 314 314 314 314 314 314 313 312 312 311 312 312 312 312 312 312 312 311 311 311 311 312 311 312 312 314 315 316 316 316 316 316 316 316 316 316 315 314 314 314 315 315 315 315 314 314 314 314 313 313 313 312 312 311 311
321 321 321 321 322 321 321 321 321 320 321 321 322 320 320 321 321 319 319 320 320 319 318 317 317 317 315 315 314 314 314 314 314 314 314 314 314 314 314 313 313 313 312 312 312 312 311 311 311 312 312 312 313 313 312 313 314 316 316 316 316 316 316 315 315 314 313 313 313 313 313 314 315 315 315 315 314 314 313 313 312 312 311 311 311
317 318 317 317 318 319 320 321 321 321 321 322 322 321 320 321 322 321 321 321 321 321 319 318 317 317 317 316 315 315 315 316 315 315 315 314 314 314 314 314 314 314 314 313 313 313 313 313 313 313 313 313 313 313 313 313 314 315 316 317 317 316 316 315 314 313 313 313 313 313 313 313 314 314 314 314 314 314 313 312 312 312 311 311 311
312 312 313 312 313 315 317 318 319 319 319 320 321 321 321 321 321 321 321 321 321 321 320 319 318 318 318 317 317 317 318 319 319 319 318 318 317 316 315 315 314 314 314 314 314 314 314 314 314 314 314 314 314 313 313 314 314 315 316 317 317 317 316 315 314 314 314 314 314 314 313 312 312 313 314 314 314 313 313 312 312 312 312 310 308
308 308 309 310 310 311 312 313 314 315 316 318 318 318 318 319 319 320 320 320 320 320 321 320 320 319 319 319 319 319 319 320 320 320 320 320 320 319 319 318 317 316 315 315 315 315 315 315 315 314 314 314 315 314 314 314 315 315 316 317 318 318 317 316 315 314 314 315 314 314 313 312 311 312 313 313 313 312 312 312 312 311 310 307 304
305 304 305 305 306 308 309 309 309 310 311 313 313 313 314 315 316 316 316 316 317 318 319 320 320 320 320 320 319 319 319 320 320 320 320 320 320 320 320 320 319 318 318 317 316 315 315 315 315 315 315 315 315 315 315 315 315 315 316 317 317 316 316 316 315 314 315 315 314 314 313 311 311 312 312 312 312 312 312 311 310 308 304 302 300
306 305 305 304 303 304 305 306 306 307 308 309 310 309 310 311 312 313 314 314 315 315 316 317 318 318 318 319 318 318 318 318 318 318 318 318 318 319 319 319 319 319 319 318 318 317 317 316 316 316 315 315 316 316 316 317 317 316 316 317 316 315 314 314 314 314 315 314 314 313 312 311 310 311 311 311 311 311 310 308 305 302 300 299 299
304 304 305 305 305 305 305 305 305 305 305 306 307 306 306 307 308 309 311 313 314 314 314 315 315 315 315 316 316 317 317 317 317 316 317 317 317 317 317 317 317 318 317 317 318 318 318 318 317 317 316 316 316 317 317 318 317 315 314 315 315 315 314 313 313 314 314 314 314 313 311 310 311 311 311 311 310 307 305 302 300 299 299 299 299
300 301 301 302 303 304 304 304 303 302 301 302 302 303 304 305 305 305 306 307 309 310 311 311 311 311 311 311 312 313 314 315 315 315 314 314 315 315 315 316 316 316 316 316 316 317 317 317 317 317 317 316 317 317 317 317 317 316 315 315 315 314 313 313 314 314 314 314 313 312 310 310 311 310 309 307 305 303 301 300 299 299 299 299 299
300 300 300 300 300 300 301 301 300 300 300 300 300 301 301 302 302 302 302 303 303 304 304 305 305 305 305 305 305 306 307 308 310 311 312 312 312 312 313 313 313 314 314 314 315 315 315 315 315 315 316 316 316 316 316 317 317 317 316 315 315 314 314 314 314 314 314 313 312 310 309 309 308 306 304 303 302 301 301 300 299 299 299 299 299
300 300 300 300 300 299 299 299 299 299 299 299 300 300 300 299 300 300 300 300 301 301 301 301 301 301 301 301 301 301 301 302 303 304 305 306 306 306 307 308 309 310 311 311 312 313 313 314 314 314 316 316 315 315 315 316 317 316 315 315 315 314 314 314 314 313 313 311 310 309 308 306 305 304 304 303 302 301 300 299 299 299 299 298 298
300 300 299 299 299 299 299 299 298 298 298 298 298 298 299 299 299 299 299 299 299 299 299 299 299 299 299 300 300 299 300 300 300 300 300 301 301 302 302 303 304 305 307 308 309 310 311 312 312 314 315 315 316 316 315 316 316 316 315 315 315 314 314 314 313 312 310 309 308 307 305 304 304 304 304 303 301 300 299 299 299 299 298 298 298
299 299 298 298 298 298 298 298 298 298 298 298 298 298 298 299 299 299 299 299 299 299 299 299 299 299 299 299 299 299 299 299 299 299 299 299 299 299 299 299 300 301 302 303 305 307 308 310 311 312 312 313 314 315 315 315 315 315 314 314 314 314 314 314 312 311 309 308 306 305 304 304 305 304 303 301 300 299 299 299 299 298 298 298 297
298 297 297 297 297 297 297 298 298 298 298 298 298 298 298 298 299 299 299 299 299 299 299 299 299 299 299 299 299 299 299 299 299 299 299 299 299 299 299 299 299 300 300 301 302 304 305 306 308 310 311 311 312 313 314 314 314 314 314 314 314 313 313 313 312 311 308 306 305 304 305 305 304 302 300 299 299 299 298 298 298 298 298 297 296
297 297 297 297 297 297 297 297 297 297 298 298 298 298 298 298 298 298 298 299 299 299 299 299 299 299 299 299 299 299 299 299 299 299 299 299 299 298 298 299 299 300 300 301 302 303 304 305 306 308 309 310 311 311 312 313 313 313 313 313 314 314 313 313 313 311 308 306 305 306 306 304 302 300 299 299 299 298 298 298 298 297 297 296 295
296 296 297 297 297 297 296 297 297 297 297 297 297 297 298 298 297 298 298 298 298 298 298 298 298 298 299 299 299 299 298 298 298 298 298 298 298 298 298 298 299 300 301 301 302 303 305 306 307 308 309 310 310 311 311 312 311 311 311 312 313 312 312 311 310 309 307 306 306 306 304 302 300 299 299 298 298 298 298 297 297 296 295 294 294
296 296 296 297 297 296 296 296 296 296 297 297 297 297 297 297 297 297 297 297 297 297 297 297 297 298 298 298 298 298 297 297 297 297 297 298 298 298 297 297 298 299 300 302 302 303 304 307 308 309 309 310 310 310 309 309 310 310 310 311 311 311 310 309 307 306 305 305 305 304 302 300 299 299 298 298 298 297 297 296 295 294 294 293 294
296 296 296 296 296 296 296 296 296 296 296 297 297 297 297 297 297 297 297 297 297 297 297 297 297 297 297 297 297 297 297 297 297 298 298 298 298 297 297 297 297 298 300 301 302 303 304 305 307 308 309 309 310 309 308 308 309 309 310 310 310 310 309 307 306 305 304 303 302 301 299 299 299 298 298 297 297 296 295 295 294 294 293 293 293
295 295 296 296 296 296 296 296 296 296 296 296 297 297 297 297 297 297 297 297 297 297 296 296 296 296 296 296 297 297 297 297 297 297 298 298 297 297 297 297 298 299 299 301 301 302 303 304 305 305 306 306 307 307 307 308 308 309 309 309 309 309 308 306 305 304 302 301 300 299 299 298 298 297 297 296 295 294 294 293 293 293 293 293 293
295 295 296 296 296 296 296 295 295 295 295 296 296 297 297 297 297 296 296 296 296 296 295 295 295 295 295 296 296 297 297 297 297 297 297 297 297 297 297 298 299 299 299 300 301 302 302 303 303 303 303 303 304 306 307 308 308 308 308 308 308 308 307 305 303 301 300 300 299 298 298 297 297 296 295 294 294 293 293 293 293 293 293 293 293
296 295 295 296 296 295 295 295 295 294 294 295 296 296 296 296 296 296 296 296 295 295 295 295 295 295 295 295 296 296 297 297 297 297 297 297 297 297 298 298 299 299 300 300 300 301 301 302 302 301 301 302 304 306 308 308 307 307 306 306 306 305 304 302 300 299 299 298 298 297 296 296 295 294 293 293 293 293 293 292 292 293 293 293 293
296 295 295 295 295 295 294 294 294 294 293 294 295 295 295 295 295 295 296 296 296 295 295 295 295 295 296 296 296 296 297 296 296 296 296 297 297 298 298 298 299 299 300 300 300 300 301 301 302 302 301 301 303 305 307 306 305 304 303 304 304 302 300 299 298 298 297 297 296 296 295 294 293 293 293 293 293 292 292 292 292 292 292 292 292
296 296 295 295 295 294 294 294 294 293 293 294 294 294 294 295 295 295 295 295 296 296 296 296 297 297 297 297 297 297 297 297 297 297 297 298 298 298 298 299 299 299 300 300 300 300 300 300 301 302 303 303 303 304 304 305 304 302 301 301 301 299 298 298 297 297 297 296 296 295 294 293 293 293 293 292 292 292 292 292 292 292 292 292 292
296 296 295 295 295 294 294 294 293 293 294 294 295 295 295 295 295 295 295 295 297 298 297 298 298 298 298 298 298 298 298 298 298 298 299 299 299 299 299 300 300 300 300 300 300 300 300 300 300 301 301 302 302 302 303 303 303 302 300 299 298 298 298 298 298 297 297 297 296 295 294 293 293 293 292 291 291 291 291 291 291 292 292 292 291
296 296 295 295 295 294 294 293 293 293 294 295 295 295 295 296 295 296 296 297 297 297 297 298 298 298 298 298 298 298 298 298 298 299 299 299 300 300 300 300 300 299 300 300 300 299 299 299 300 300 300 300 301 301 301 301 300 299 298 298 298 299 299 299 298 298 297 297 296 295 293 293 293 292 291 291 290 290 290 291 291 291 291 291 290
296 296 295 295 295 294 293 292 292 293 293 294 294 295 296 296 297 297 297 297 297 296 296 297 297 298 298 298 299 299 298 298 298 299 299 299 299 299 300 300 299 299 299 300 300 300 300 300 300 300 300 300 300 300 300 299 298 297 298 298 299 299 299 299 298 297 297 296 295 293 292 292 292 291 290 290 290 290 290 291 291 291 290 290 290
296 296 295 295 295 294 293 293 293 293 293 294 294 295 296 297 297 297 296 296 296 296 296 296 297 297 297 298 298 298 297 297 297 298 298 298 298 298 299 299 299 299 299 300 300 300 300 300 300 300 300 300 300 299 298 297 297 298 298 298 298 298 298 298 297 297 296 295 293 292 292 291 291 290 290 289 289 290 290 290 290 290 289 289 289
296 296 295 295 295 294 293 293 294 294 294 294 295 296 297 297 296 296 296 296 295 295 295 295 296 297 297 297 297 297 296 296 296 297 297 297 297 297 297 297 297 298 298 298 299 299 299 299 299 299 299 299 298 298 297 297 298 298 297 297 297 297 297 297 296 296 295 293 292 291 291 290 290 289 289 289 289 290 290 290 289 289 289 289 289
296 296 295 294 294 293 293 293 294 294 294 295 295 296 297 296 296 296 295 295 295 295 295 295 295 297 298 297 297 296 296 295 296 296 296 297 297 297 297 297 297 297 297 297 297 298 298 297 297 297 297 297 297 297 297 297 297 297 296 297 297 297 296 296 296 295 293 292 292 291 290 290 289 289 289 289 289 290 290 289 289 289 289 289 289
296 295 294 294 294 294 293 293 294 294 295 295 296 297 297 296 295 295 295 294 294 294 294 294 296 297 297 297 297 296 295 295 295 295 296 297 297 297 297 297 297 298 298 297 297 297 297 297 296 296 296 296 296 297 297 297 297 297 297 297 297 297 296 296 295 293 292 292 292 291 290 289 289 289 288 289 289 290 290 289 289 289 290 290 289
296 295 294 294 294 294 293 293 293 294 295 295 295 296 296 295 295 295 294 294 294 294 294 295 296 296 296 296 296 295 295 295 295 295 296 297 297 297 297 297 297 298 298 298 297 297 297 297 296 296 296 296 297 297 297 298 297 297 297 297 297 297 296 295 294 293 292 292 292 291 290 289 289 288 288 289 289 290 289 289 289 289 289 289 289
296 295 294 294 294 294 294 293 293 294 294 295 295 295 295 295 295 294 294 294 294 294 294 295 295 295 295 295 294 294 294 294 295 296 296 297 297 297 297 297 297 297 297 298 298 297 297 297 297 297 297 297 297 297 297 297 297 297 297 296 296 295 294 293 292 292 292 292 291 290 289 289 288 288 288 289 289 290 290 290 289 289 289 289 289
296 295 294 294 294 294 295 294 293 293 294 294 294 295 295 295 295 294 294 294 294 293 294 294 294 294 294 294 294 294 294 294 295 296 296 296 296 297 297 297 297 297 297 297 297 297 296 296 296 297 297 297 297 297 297 296 296 295 295 294 293 293 292 292 292 292 292 292 291 290 289 289 288 288 288 289 289 290 290 290 290 290 290 289 289
295 295 294 294 293 294 295 295 294 294 294 293 294 294 294 295 295 294 293 293 293 293 293 294 294 294 294 294 294 295 294 294 295 296 296 296 296 297 297 297 297 297 297 297 297 297 296 296 296 296 296 296 296 296 296 295 294 294 293 292 292 292 292 292 292 292 292 291 290 289 288 288 288 288 289 289 289 289 289 290 290 290 289 289 289
295 295 294 293 293 294 295 295 295 294 294 294 294 293 294 294 294 293 293 293 293 292 292 293 294 294 294 294 294 295 295 295 295 295 295 296 296 296 296 296 296 296 296 296 296 296 296 296 296 296 296 296 295 295 294 294 293 292 292 292 292 292 292 292 291 291 290 290 288 288 287 287 288 288 289 289 289 289 289 289 289 289 289 289 289
295 295 295 293 293 294 295 295 295 295 294 294 293 293 294 294 294 293 293 293 292 292 293 293 293 293 294 294 294 295 294 294 294 294 295 295 295 295 295 295 295 295 295 295 296 296 296 295 295 295 295 295 294 294 293 292 292 292 292 291 291 291 291 290 289 288 288 287 287 287 287 287 288 289 289 288 289 289 289 289 289 288 288 289 290
295 295 295 294 293 294 295 295 294 294 294 293 293 293 294 294 293 293 293 293 292 293 293 294 294 294 294 294 294 294 294 294 294 294 294 294 294 294 295 295 295 295 295 295 295 295 295 294 294 294 293 293 293 293 293 292 292 292 292 291 290 289 288 287 287 287 287 287 287 287 288 288 288 289 289 289 289 289 289 289 289 288 288 289 289
296 295 295 294 293 293 294 295 294 294 294 293 292 293 293 293 293 293 293 292 292 293 294 294 294 294 294 294 294 294 294 294 294 294 294 294 294 294 294 294 294 294 294 293 293 293 293 293 293 292 292 292 292 292 292 291 291 291 290 289 288 286 286 286 287 287 288 289 289 289 289 289 289 289 289 289 289 289 289 289 289 289 288 288 289
296 295 295 294 292 291 292 294 294 294 294 293 293 292 293 293 293 293 292 292 293 293 294 294 294 293 293 293 294 294 294 294 294 293 293 293 293 293 293 293 293 293 292 292 291 291 291 291 291 291 291 291 290 290 290 289 288 288 287 287 286 286 287 288 288 289 290 290 290 289 289 289 289 290 290 290 290 290 290 289 289 289 289 289 288
Wind_Speed
28 27 24 22 21 20 18 18 17 16 15 14 13 11 10 9 7 5 5 5 4 3 3 4 4 5 5 7 7 6 5 7 7 8 8 9 9 10 11 12 13 12 13 13 12 12 11 10 10 11 12 13 15 15 16 18 17 15 14 14 13 12 10 9 6 4 7 10 8 6 6 7 8 6 6 6 5 3 2 2 2 2 3 4 4
29 28 26 25 23 21 20 19 17 16 16 15 14 13 11 10 8 6 6 6 5 5 5 5 5 6 6 8 8 7 5 6 7 8 8 9 10 11 12 13 13 13 13 13 13 13 12 12 11 11 12 13 14 16 17 18 17 15 15 15 15 14 13 12 10 7 7 9 9 8 8 8 8 7 6 6 5 3 3 3 4 4 5 5 5
28 28 27 26 24 22 20 18 16 16 15 14 13 12 11 10 9 7 7 7 6 7 7 6 6 7 8 9 9 8 7 6 7 7 8 9 10 12 13 14 14 13 14 14 14 14 14 14 13 12 13 13 14 16 17 16 15 13 13 13 13 15 16 15 13 9 8 9 9 8 8 9 8 7 6 6 6 5 4 4 5 6 6 6 6
25 25 25 25 23 21 19 18 17 16 15 14 13 12 11 11 9 7 7 8 8 8 7 7 7 8 9 11 10 10 9 8 7 8 8 9 9 10 12 14 14 14 14 15 15 17 17 16 15 14 14 14 14 15 15 14 13 12 11 11 11 14 16 17 15 12 9 10 10 8 8 8 7 7 7 7 8 8 8 7 7 8 8 8 9
26 25 25 24 23 22 20 18 18 17 16 15 14 13 12 12 10 8 8 8 8 8 8 8 8 9 10 11 11 11 9 8 8 9 10 10 10 10 12 14 14 14 14 15 15 16 18 18 17 16 16 15 14 14 13 13 13 12 12 12 11 12 15 16 16 14 11 11 10 9 9 9 8 8 8 8 9 10 10 9 10 10 10 10 11
29 28 26 25 24 22 20 19 18 18 18 17 15 14 13 12 10 9 9 9 9 8 8 8 7 7 7 9 11 11 10 9 10 10 11 12 11 12 13 14 13 13 14 14 13 14 16 18 19 19 18 17 16 16 15 15 14 13 12 12 12 12 14 16 16 14 12 11 11 10 10 9 8 9 9 9 10 11 11 12 12 13 13 13 13
31 28 27 28 27 24 22 22 22 21 20 18 17 16 15 13 11 10 10 9 9 9 9 8 7 5 4 5 8 11 11 10 10 11 12 13 13 14 15 15 14 14 14 14 14 13 14 16 18 19 19 19 18 18 17 16 16 15 13 12 12 13 15 15 15 14 13 13 12 12 11 10 10 10 11 11 12 13 13 14 15 16 16 15 15
30 27 26 28 30 30 28 26 25 24 21 19 19 19 17 15 13 12 11 10 9 9 9 9 7 5 4 3 4 8 10 10 11 12 13 14 14 15 16 16 15 15 16 16 15 14 14 15 16 17 17 17 17 16 16 16 17 16 15 14 14 14 15 15 15 15 15 15 15 15 14 13 13 13 14 15 15 15 15 15 16 17 18 17 16
29 28 27 28 31 33 30 27 26 24 22 21 21 20 18 15 13 12 11 10 10 9 9 9 9 7 6 5 4 5 7 9 11 13 14 14 15 16 16 16 16 16 16 17 17 16 15 16 16 16 16 16 16 16 16 17 17 17 16 16 17 17 17 17 17 17 16 17 17 17 17 17 17 17 17 18 18 17 16 16 17 18 19 18 18
32 32 29 26 28 31 29 27 27 26 23 21 20 19 18 16 14 13 12 11 11 10 9 9 9 9 8 7 6 6 6 6 8 11 14 15 15 16 17 17 17 17 18 18 18 18 18 18 17 18 18 18 18 18 18 19 19 18 18 17 18 19 19 19 19 18 18 18 18 18 19 20 20 20 20 20 20 19 19 18 19 20 21 21 21
31 32 29 26 27 30 29 27 27 24 21 19 18 18 18 16 15 14 13 13 12 11 10 8 9 9 10 9 8 8 7 5 5 7 11 13 15 17 18 18 19 19 19 20 20 20 20 20 20 20 20 21 21 20 20 21 21 21 21 20 19 19 19 18 18 19 19 20 20 21 22 23 22 22 22 22 22 22 21 20 20 21 22 22 22
23 26 28 27 27 28 28 26 24 21 19 19 19 19 18 18 18 17 15 14 14 13 11 10 9 10 10 10 10 10 10 9 8 7 8 10 12 15 17 18 20 21 21 21 22 22 22 22 23 23 22 22 22 22 22 21 22 22 22 22 21 20 20 20 20 20 20 21 21 23 24 25 24 24 24 23 22 22 21 21 20 21 22 22 22
20 23 25 25 24 25 25 25 24 22 22 21 20 20 20 20 20 19 18 16 16 16 15 13 12 12 12 12 13 13 12 12 12 12 12 12 12 13 15 16 19 21 22 23 24 25 25 25 25 25 24 23 23 23 23 22 22 21 21 22 23 23 23 23 22 21 20 21 22 23 24 25 26 26 25 23 22 21 21 20 20 20 21 21 22
22 23 23 22 22 22 22 22 22 23 23 21 19 20 22 21 21 20 19 18 18 18 18 17 15 15 15 15 15 15 15 15 15 16 17 18 18 18 18 18 19 19 20 22 23 24 25 26 26 26 26 26 26 25 25 24 24 23 23 23 24 25 26 25 24 23 22 22 23 24 24 25 26 26 25 24 23 21 20 19 19 20 20 21 23
25 24 23 22 22 21 20 20 21 22 21 19 18 18 20 20 20 20 19 19 19 20 20 21 20 19 18 18 18 18 17 17 17 17 18 19 22 23 24 24 24 23 22 22 23 23 24 24 25 26 26 27 28 28 28 28 27 27 26 27 27 27 27 27 27 25 24 23 23 24 24 25 26 26 25 25 23 21 20 20 20 20 21 22 23
26 24 23 22 21 21 19 19 19 19 17 16 15 15 16 16 17 17 18 19 20 20 21 22 22 22 21 21 22 21 19 18 17 18 18 18 20 23 25 28 29 29 29 28 27 27 26 26 27 27 27 28 28 28 29 30 30 30 31 32 32 30 29 30 30 29 27 26 26 26 26 26 26 25 25 25 23 22 21 21 21 22 22 21 21
22 20 19 18 17 16 16 15 16 16 15 15 15 15 15 15 15 15 15 17 18 19 20 20 21 22 22 23 25 25 23 22 22 21 21 21 21 21 22 24 27 31 33 33 33 33 32 32 31 31 31 31 30 30 31 33 33 34 34 35 34 33 32 32 32 32 31 31 31 30 27 25 25 24 24 24 23 23 22 22 22 21 19 18 17
16 14 14 13 11 10 10 10 11 12 12 13 13 12 12 12 13 13 13 13 14 14 15 16 18 18 19 20 23 24 25 25 26 26 26 26 26 26 24 23 23 26 29 32 35 36 37 37 36 36 36 34 34 34 36 38 39 39 38 38 37 35 35 34 32 32 33 32 31 28 26 25 24 24 24 23 23 23 23 22 20 18 16 15 15
8 7 7 6 5 4 3 2 2 2 4 6 7 7 8 9 9 10 11 12 12 12 13 13 14 15 16 17 20 21 22 22 23 24 25 25 26 28 28 28 27 27 26 27 29 32 34 36 37 38 39 39 39 39 40 43 44 41 37 38 37 37 36 35 33 33 33 31 29 27 26 26 25 24 24 23 23 22 21 19 17 16 14 14 14
5 4 4 3 3 4 3 3 4 4 4 5 7 8 9 8 8 9 11 12 12 13 14 14 15 16 16 17 19 21 22 22 22 22 23 23 24 25 26 27 28 29 28 26 25 26 27 29 31 33 36 38 39 40 43 45 44 37 33 35 37 36 35 33 32 32 31 29 27 25 25 25 25 24 23 23 21 19 17 15 14 13 13 13 13
7 6 6 5 5 7 7 7 7 8 8 9 9 11 12 12 13 13 13 14 15 16 17 18 18 19 20 20 21 22 24 25 24 24 24 23 24 25 26 26 26 27 28 28 27 26 25 24 25 26 29 32 34 38 41 44 44 41 38 37 35 32 30 29 29 29 29 27 26 25 24 25 24 23 22 20 17 15 14 13 12 12 12 13 14
8 9 9 9 8 8 9 10 11 12 12 13 13 14 14 14 15 16 16 17 18 19 20 21 22 22 23 24 24 25 26 27 27 27 27 27 26 27 27 28 28 28 29 30 30 29 27 25 24 23 24 25 27 31 35 38 42 43 39 33 30 29 29 28 28 27 28 27 24 23 24 24 23 21 18 16 14 13 12 12 12 12 13 14 15
10 11 12 12 12 12 12 13 14 15 15 15 16 17 17 17 17 18 18 19 19 20 21 22 23 24 24 25 26 26 27 27 28 28 29 30 30 30 30 30 30 31 32 33 33 32 31 30 28 24 23 23 25 27 29 32 38 40 37 33 30 29 29 28 26 26 27 27 24 24 24 23 21 19 16 14 13 12 11 11 11 12 13 15 16
13 14 15 15 15 15 15 15 16 16 17 17 17 18 18 18 18 19 19 20 20 21 21 22 23 24 25 25 25 26 27 27 27 27 28 29 31 32 33 33 33 33 35 36 36 35 34 33 32 29 26 25 26 28 29 30 33 35 34 32 31 29 28 28 27 27 27 28 27 25 24 22 19 17 15 13 12 11 10 10 11 13 14 16 17
17 17 17 17 17 17 17 16 16 16 17 17 17 18 18 18 18 18 19 19 20 21 21 22 22 23 24 24 25 25 25 25 25 25 25 26 27 29 31 32 33 34 36 37 37 37 36 35 35 34 32 30 29 29 29 29 29 30 30 30 31 30 28 28 28 28 29 29 27 25 23 21 18 15 14 12 11 10 10 11 12 13 15 16 18
17 16 16 15 16 16 15 15 15 16 16 16 16 17 18 18 18 19 19 19 20 21 21 22 23 24 24 25 26 26 26 26 26 25 24 23 23 24 27 29 29 30 33 34 35 35 36 36 36 36 35 34 32 31 30 28 27 27 28 30 31 30 28 29 31 32 30 28 26 24 22 20 17 15 13 12 11 10 11 12 12 13 15 17 19
15 15 14 14 15 15 15 15 15 15 16 16 16 16 16 17 18 19 20 20 21 22 22 23 24 26 27 28 29 29 29 28 28 28 27 26 24 23 23 24 25 27 29 31 32 32 32 33 34 34 35 34 33 33 32 30 28 27 28 30 32 32 31 32 34 34 31 28 26 24 21 19 17 15 14 12 11 11 11 11 12 13 16 17 19
16 16 16 15 15 15 15 15 16 16 16 17 17 17 17 18 19 19 20 21 22 23 24 25 26 27 29 30 31 32 31 30 29 29 28 27 27 25 24 22 22 24 25 27 29 30 30 29 29 30 32 32 32 31 30 28 27 27 27 29 32 33 32 32 33 33 30 27 25 23 21 19 17 15 14 12 11 11 10 11 13 15 17 18 19
18 18 18 17 17 16 16 16 16 17 17 17 18 18 18 18 20 20 20 21 22 24 25 26 27 28 29 30 31 32 32 31 28 27 27 26 25 26 25 23 22 22 22 23 26 28 28 26 25 25 26 26 26 25 23 22 22 23 25 27 31 33 33 33 34 32 28 25 23 21 20 18 17 15 13 12 10 10 11 12 14 16 17 18 18
17 18 19 19 18 18 18 18 18 18 19 19 18 17 15 15 17 19 19 20 21 22 24 25 26 27 28 28 28 29 31 31 29 28 27 25 24 25 25 23 21 21 21 22 23 24 25 25 23 22 22 20 19 19 19 20 21 22 23 25 28 30 32 33 31 26 22 21 19 18 17 16 15 13 12 11 10 10 11 13 14 16 16 16 15
16 17 19 20 20 20 20 19 19 20 19 19 17 16 15 14 13 15 17 17 18 18 19 20 21 22 24 26 27 27 28 28 28 28 27 26 25 25 24 21 19 20 22 22 22 21 21 22 23 23 24 22 20 19 19 20 23 25 25 25 27 29 31 30 26 22 21 19 17 16 14 13 13 12 11 10 10 10 11 12 14 14 14 13 13
16 18 20 20 20 20 20 19 20 20 19 17 15 15 16 15 12 11 12 13 13 13 14 15 16 17 19 22 24 26 27 27 26 26 26 26 26 24 21 18 17 19 22 24 24 21 18 17 18 20 21 22 22 21 21 22 26 30 29 28 29 28 27 25 23 21 20 18 16 15 14 12 12 11 10 9 9 9 10 11 11 11 11 11 12
17 18 20 20 20 20 20 19 19 20 20 17 14 12 14 15 14 12 10 9 8 8 10 11 13 15 17 18 21 23 24 24 24 25 25 24 23 21 19 17 17 19 21 24 25 23 19 16 14 14 15 16 18 21 23 25 28 31 30 29 27 25 23 22 21 19 17 16 14 13 12 11 10 9 9 8 8 8 9 9 9 9 10 11 12
17 18 20 22 21 20 20 19 19 20 20 16 12 11 12 13 13 13 12 10 6 4 4 6 9 12 14 15 16 18 18 19 20 20 21 21 21 20 19 18 19 20 22 24 25 24 22 18 15 14 14 14 15 19 23 26 28 29 27 25 24 23 23 22 20 18 16 14 12 10 9 9 9 8 8 8 8 8 7 7 8 8 10 11 12
17 17 19 21 20 18 18 19 20 20 18 13 11 10 9 9 9 11 13 13 12 9 5 4 8 12 14 14 14 15 15 15 15 16 17 19 20 20 20 20 20 21 23 24 25 25 24 20 18 16 16 15 16 18 21 24 26 27 27 26 26 26 25 22 20 17 15 12 11 9 9 8 7 7 8 8 7 6 6 7 8 8 10 11 11
16 16 19 20 19 17 17 18 19 17 14 11 8 6 6 7 9 11 13 14 14 14 13 12 12 13 11 12 14 14 14 14 13 13 14 15 16 16 17 18 20 22 23 24 24 24 23 21 18 17 16 16 16 17 21 24 26 27 29 30 30 27 24 21 18 16 14 12 11 10 9 8 7 7 6 6 5 5 6 7 8 8 9 9 8
15 15 18 20 19 18 17 17 16 13 11 9 6 4 4 7 10 12 13 13 14 15 16 16 16 14 10 9 11 12 12 11 10 9 10 10 10 11 11 12 13 15 17 18 18 18 17 16 15 15 15 15 16 18 21 24 26 29 31 30 28 24 21 19 17 15 13 12 10 8 7 6 5 4 4 4 5 6 7 7 7 6 6 5 4
14 15 17 19 19 17 17 16 14 13 11 9 4 3 5 8 9 10 12 13 15 17 17 16 16 15 14 13 13 13 11 7 6 9 12 13 12 11 9 8 8 9 10 10 10 11 12 12 13 14 15 16 17 20 22 25 30 33 30 26 23 21 19 18 16 14 12 9 7 5 4 4 3 3 3 4 6 7 6 6 4 3 3 2 0
13 14 17 19 18 16 14 14 14 14 12 8 3 2 6 8 9 10 13 14 15 17 17 16 15 15 16 16 14 12 10 7 7 10 13 15 17 16 13 10 9 9 8 7 8 9 10 11 12 13 14 16 18 21 25 30 33 30 27 24 22 20 18 17 16 14 10 6 4 4 4 3 3 2 3 5 6 6 4 4 3 2 1 1 1
13 14 16 18 17 14 12 12 14 14 12 7 3 4 6 8 10 12 14 16 16 17 18 18 16 14 14 14 12 11 10 8 8 10 12 14 17 18 16 15 15 14 11 10 10 10 10 11 11 12 13 14 16 21 29 32 30 27 25 23 21 18 16 15 13 11 7 5 4 4 3 3 2 3 4 5 6 4 3 4 4 3 3 2 1
12 13 16 17 16 13 10 10 11 12 11 8 6 6 6 8 10 13 15 17 19 19 19 19 16 13 12 11 10 8 8 8 8 8 9 11 14 15 15 16 16 15 13 11 10 9 8 7 8 9 11 13 17 24 29 29 26 25 23 21 18 17 16 13 10 7 6 5 5 4 4 3 2 3 5 6 4 3 4 4 4 5 5 4 5
11 13 15 15 14 12 9 8 8 9 9 8 7 7 8 9 11 13 16 17 19 20 20 18 15 12 10 9 8 7 7 7 8 7 7 9 11 11 12 14 15 15 13 10 7 5 3 1 3 6 10 15 22 26 27 25 23 22 20 17 16 15 14 10 8 7 7 6 5 4 4 3 2 4 5 5 3 3 3 3 4 5 3 3 5
10 12 14 14 13 11 9 8 7 6 6 6 6 7 9 10 11 14 16 18 19 20 17 14 12 12 11 10 9 8 8 8 8 7 5 6 8 8 9 11 14 14 14 12 8 4 2 4 8 12 16 19 22 24 23 21 18 16 14 12 12 11 9 8 8 7 6 5 5 4 3 3 3 4 5 4 2 2 2 4 4 3 1 2 5
9 12 14 13 11 10 10 10 8 7 6 6 6 6 8 9 11 13 15 18 19 17 12 12 14 15 14 13 12 10 8 7 7 6 4 3 5 6 6 8 11 12 14 15 12 6 2 5 9 13 17 20 20 19 17 14 11 10 9 9 8 8 9 8 7 5 4 3 3 3 3 4 4 5 4 3 0 2 4 4 2 1 1 2 5
8 11 13 14 12 9 9 10 9 8 8 8 7 7 7 7 9 11 14 16 17 13 10 13 16 16 15 16 16 14 11 9 7 6 5 4 4 5 5 7 8 10 11 13 13 8 0 5 7 10 13 15 15 14 13 12 11 10 10 10 9 9 9 7 4 3 2 2 2 2 3 4 5 5 4 3 2 4 5 3 1 1 1 2 4
8 10 13 14 13 10 9 9 9 9 10 10 9 8 7 6 8 10 12 14 15 11 9 13 15 16 16 18 17 16 15 13 10 8 7 6 5 5 5 7 8 9 9 9 8 5 3 5 6 9 12 14 14 14 13 12 11 11 11 11 10 8 6 4 3 4 5 5 4 3 4 5 5 5 4 4 3 4 4 2 1 1 1 2 4
7 10 12 14 13 11 10 9 8 9 11 11 8 6 5 4 6 9 11 11 11 9 9 12 15 15 16 17 16 15 15 14 12 10 9 7 7 7 7 6 7 6 5 3 3 6 8 9 10 12 12 12 12 12 11 11 12 11 10 9 6 4 4 5 6 7 7 5 4 4 5 5 5 5 5 4 3 3 3 2 1 0 1 2 4
7 9 11 13 13 12 11 10 8 8 10 9 6 4 3 3 5 8 8 8 8 8 10 12 14 14 15 16 15 15 15 14 13 13 11 10 10 11 11 11 11 10 8 8 9 10 11 11 11 11 10 10 10 10 10 10 10 8 6 5 3 4 5 6 7 6 5 5 5 5 5 5 5 5 5 5 4 3 2 3 4 5 5 4 5
7 8 10 12 12 11 10 10 9 8 6 3 1 1 1 2 5 6 5 6 6 7 9 11 12 12 13 14 13 14 14 13 13 14 13 13 13 13 12 12 12 12 12 12 12 12 12 11 10 9 9 8 8 7 7 7 6 4 3 3 3 3 5 5 5 4 4 5 5 5 5 6 6 6 6 6 4 2 3 5 7 9 7 5 5
7 7 9 11 11 10 9 9 10 9 6 5 5 4 3 2 3 4 5 7 6 6 8 9 10 10 11 12 11 11 10 10 11 11 11 11 11 11 10 10 11 12 12 13 12 12 11 10 9 8 8 7 6 6 5 5 4 3 2 3 3 3 5 6 6 7 7 7 7 7 7 8 8 7 6 5 3 3 5 6 7 9 9 8 6
8 7 8 9 10 10 8 7 8 8 6 5 6 6 4 2 3 5 6 6 5 5 8 9 8 9 9 9 9 9 9 9 10 10 10 11 11 10 10 10 11 11 11 11 11 12 11 10 9 9 8 7 7 7 6 6 5 4 4 5 6 7 8 9 10 10 10 9 9 8 8 8 7 6 5 3 1 2 3 4 5 6 8 8 6
Wind_Direction
194 195 194 194 195 196 196 198 193 188 188 187 184 188 195 201 205 213 226 236 238 234 244 248 251 260 251 237 232 222 192 180 186 191 191 193 192 190 188 184 187 186 177 173 176 178 184 182 173 176 183 186 189 193 195 199 205 213 222 226 225 223 230 234 228 213 202 191 180 187 202 199 196 189 163 147 149 163 178 211 252 274 316 335 348
191 192 193 193 196 199 198 196 193 190 191 191 190 194 201 207 212 218 225 227 220 216 222 225 231 241 240 233 226 219 206 191 196 202 200 199 197 193 191 189 193 195 188 184 186 191 199 202 192 185 186 189 191 192 195 199 204 212 218 222 224 225 228 231 229 229 223 206 192 195 204 200 195 191 176 164 168 180 203 254 275 281 295 302 306
191 191 193 193 196 199 197 196 197 197 198 197 198 203 211 217 220 225 227 225 218 215 217 219 227 232 232 227 220 218 224 217 209 212 211 208 205 202 200 200 204 207 205 203 203 203 207 209 205 198 191 189 189 188 188 192 199 206 211 216 220 223 228 231 229 234 238 220 210 210 208 204 200 196 191 193 204 217 235 260 271 276 283 280 275
195 193 196 196 196 196 196 198 201 205 207 209 212 217 223 228 231 233 231 227 222 218 216 217 224 228 225 222 218 218 228 230 220 218 219 216 217 217 213 211 214 218 221 222 220 215 213 211 209 206 199 192 188 188 191 197 205 212 218 222 221 221 228 231 229 236 243 229 224 222 210 205 204 201 207 216 224 233 244 257 265 271 273 266 269
204 201 200 200 198 196 198 202 203 208 212 214 219 224 229 235 238 237 232 229 227 220 214 214 217 219 219 217 217 219 223 225 220 219 221 220 222 226 222 217 218 223 227 229 226 218 213 212 212 209 207 206 205 208 215 222 226 228 229 231 226 216 220 226 229 235 238 232 231 227 215 213 212 212 221 232 237 240 247 255 260 266 270 270 275
210 207 203 202 201 198 201 206 207 210 212 213 217 221 226 231 232 232 232 231 228 218 208 202 196 190 198 209 215 219 220 219 216 216 218 217 219 222 219 215 215 218 221 221 218 211 207 210 213 213 214 218 223 230 236 239 240 239 236 233 223 208 209 220 229 235 235 229 229 230 229 229 226 227 232 235 240 244 249 254 257 260 267 272 274
211 209 206 205 203 198 200 207 210 210 209 210 213 214 215 218 216 219 227 226 221 213 200 189 177 163 164 191 209 215 215 211 209 210 212 212 213 213 209 206 207 209 211 211 208 205 206 209 214 217 222 227 233 239 243 244 244 243 241 235 223 212 213 223 230 234 234 230 229 233 237 237 237 237 237 236 238 243 248 254 257 259 265 269 269
204 206 204 202 201 198 199 206 208 208 208 210 213 210 205 206 207 213 222 217 207 205 198 191 192 192 188 183 198 209 207 201 201 204 206 207 207 205 203 202 204 207 206 207 207 205 206 210 215 219 223 229 236 242 246 249 247 244 242 242 239 235 235 237 238 237 237 236 237 239 239 239 240 239 238 237 239 243 248 254 256 259 263 264 263
195 198 197 197 201 202 202 204 204 205 209 213 214 207 198 201 207 211 215 204 192 196 200 203 213 219 218 210 202 208 206 204 206 206 205 205 204 204 206 206 206 209 208 209 211 211 210 213 216 220 224 229 235 242 248 252 252 248 246 248 249 249 249 249 248 246 242 240 241 241 241 242 243 242 242 243 244 246 250 252 253 256 258 258 260
187 190 191 194 200 201 202 204 203 206 210 209 206 201 195 198 203 202 200 193 187 195 206 216 223 228 229 224 221 223 220 213 217 218 215 213 211 210 213 215 216 217 218 217 218 218 219 221 222 225 230 234 237 242 246 249 252 251 251 251 251 251 249 247 248 250 251 251 251 250 249 249 249 247 246 248 250 252 252 252 251 252 253 255 258
185 185 187 193 198 200 203 206 203 201 199 194 196 198 195 194 193 189 190 193 195 202 210 218 226 229 231 233 237 242 242 238 236 235 232 231 228 225 224 225 227 229 230 230 229 228 229 230 231 233 236 239 242 244 246 249 251 252 252 251 248 246 244 244 247 251 255 258 260 261 260 259 256 252 249 249 251 253 255 255 251 249 250 253 256
174 173 181 189 193 195 199 198 194 190 187 188 190 190 186 189 190 188 192 199 203 205 208 215 223 226 229 235 244 250 255 256 253 250 252 250 247 243 240 239 239 240 242 244 244 244 243 242 242 243 244 246 246 247 249 251 251 252 254 253 250 246 244 244 248 251 255 260 263 264 266 265 261 256 253 252 253 254 256 255 252 249 249 251 254
148 156 170 177 180 184 187 188 187 187 188 192 193 188 184 189 194 194 198 204 207 207 208 213 220 224 228 233 241 247 252 255 255 254 255 256 256 254 252 251 250 250 252 254 254 253 252 251 252 253 253 252 250 251 254 254 253 253 254 254 253 251 250 251 251 251 256 262 265 267 269 268 264 262 260 259 259 259 258 254 251 250 250 253 258
137 144 150 155 161 170 177 180 181 184 187 191 194 189 186 191 197 200 203 208 213 213 211 211 215 221 227 231 236 240 244 247 250 251 253 255 255 254 255 255 255 255 257 259 260 259 258 258 260 262 262 261 260 260 261 260 257 256 255 254 252 252 252 252 250 251 257 265 270 273 273 270 267 265 264 264 264 262 258 254 250 250 253 259 266
122 125 128 131 137 147 158 162 163 169 178 188 193 190 189 196 203 206 206 208 214 216 213 212 214 217 222 227 231 237 242 245 248 249 249 251 252 252 253 253 254 257 258 259 261 262 264 266 267 268 268 268 268 268 268 267 263 261 259 257 255 254 253 252 251 254 261 269 274 277 275 270 266 263 261 262 261 257 252 249 250 254 260 267 273
115 117 119 119 123 131 142 147 147 150 158 169 176 177 181 191 201 207 209 210 215 217 214 214 216 218 220 224 228 232 235 242 250 251 250 250 249 249 250 251 251 253 255 257 259 260 262 264 265 267 268 269 269 269 270 268 265 264 263 261 259 258 257 255 255 258 263 269 275 279 276 269 262 258 255 255 253 249 246 248 254 260 266 271 276
109 112 114 117 122 126 130 134 137 141 150 157 160 162 168 177 184 191 199 207 213 217 218 219 222 225 226 228 232 235 236 240 247 250 250 250 250 249 250 251 251 250 251 253 255 257 258 259 260 262 264 265 267 266 264 263 261 260 260 258 256 256 256 255 256 259 265 270 275 277 275 267 258 251 247 245 244 243 247 254 260 264 267 271 276
92 93 97 101 107 116 126 134 137 143 153 158 157 160 168 176 181 185 189 195 202 209 215 221 227 233 234 234 236 239 239 240 243 246 247 248 248 249 250 252 252 252 253 253 253 254 256 256 258 259 261 263 265 264 262 261 258 256 256 257 256 256 257 258 259 263 269 273 275 274 270 262 251 244 241 241 242 246 252 256 260 263 266 272 279
83 73 70 74 79 85 102 136 165 167 165 168 170 178 185 188 195 199 202 205 208 212 218 223 229 235 237 236 237 239 239 239 240 243 245 246 248 249 250 253 253 253 254 256 256 256 256 256 257 258 260 262 263 263 263 261 257 252 251 255 259 261 262 262 263 266 271 274 273 271 265 255 244 239 240 241 243 247 252 255 260 266 271 277 284
52 27 359 346 317 303 309 303 290 291 276 248 239 245 246 239 233 231 229 227 227 229 232 234 237 240 241 240 240 241 243 243 242 243 244 246 248 251 252 255 256 255 255 256 257 258 259 260 258 257 258 260 261 263 263 263 261 258 254 257 260 262 263 264 264 267 270 270 268 264 256 247 239 236 237 238 241 246 252 260 268 274 280 287 292
20 8 352 341 316 294 289 290 295 298 294 286 279 274 268 261 258 257 254 251 247 245 244 244 245 247 248 248 247 246 246 246 246 247 249 250 251 252 253 256 258 259 258 257 256 256 256 259 261 263 264 264 264 265 266 267 269 268 264 264 266 266 266 264 264 266 265 262 258 252 242 234 231 230 231 234 239 248 258 269 277 282 290 297 300
360 351 344 339 333 321 311 306 304 303 302 300 296 292 287 279 273 270 268 265 262 261 260 258 256 255 255 256 256 255 254 252 250 250 252 253 256 257 258 258 260 261 261 260 259 258 256 256 258 264 270 271 270 270 271 272 272 269 267 269 272 272 270 266 263 260 256 252 246 235 226 224 225 226 228 235 244 255 265 273 281 290 298 301 301
346 341 337 332 330 325 319 315 312 309 308 305 301 299 300 298 295 290 286 282 278 274 272 270 268 266 264 263 263 262 262 261 260 258 256 256 258 259 261 262 263 263 264 264 264 263 262 259 257 257 261 268 272 275 275 274 273 272 272 276 277 276 273 269 261 250 245 242 235 223 218 220 223 226 231 241 250 258 266 274 285 293 296 296 296
338 335 331 329 328 324 321 318 315 311 309 307 305 302 301 301 300 298 295 293 289 286 283 279 277 276 273 271 269 268 268 267 267 267 265 264 262 261 262 263 264 265 265 266 266 266 265 262 259 255 253 257 263 269 271 271 272 273 275 277 276 273 270 265 253 241 236 232 224 218 217 219 223 230 237 244 249 255 263 274 283 287 288 291 295
336 334 331 331 329 327 326 323 319 316 313 310 308 306 304 303 301 298 297 296 294 292 290 287 285 284 282 281 279 278 278 277 277 275 273 270 268 265 263 262 263 264 264 265 266 266 266 265 263 260 257 255 256 259 263 265 268 272 274 275 272 268 265 257 245 233 227 222 216 214 215 218 224 232 238 242 247 253 261 271 278 282 288 295 299
339 339 339 339 337 335 333 328 323 321 318 315 314 311 307 305 303 302 301 300 297 296 293 291 290 288 287 287 286 286 286 287 286 285 283 280 276 271 266 262 261 262 263 264 264 265 264 264 263 262 261 259 258 259 261 264 267 272 274 275 272 266 259 250 240 229 219 214 212 212 215 220 226 229 230 234 241 249 260 270 278 286 294 299 302
351 351 350 349 346 344 341 336 331 327 323 319 316 311 307 305 302 301 300 298 296 294 292 291 290 289 288 287 287 287 287 287 288 288 287 286 284 280 275 268 263 262 264 264 265 265 265 265 263 262 260 259 260 262 264 265 266 265 267 270 270 263 254 246 238 228 215 209 210 212 215 220 223 221 223 230 237 247 260 272 283 292 296 299 302
359 356 353 351 349 346 342 337 332 327 323 319 315 312 309 306 303 302 301 299 297 295 294 293 292 292 292 292 291 291 291 290 291 290 290 290 289 289 287 280 270 266 267 267 267 266 266 267 267 264 260 258 258 259 260 261 260 259 261 261 256 250 246 237 226 218 211 206 207 210 212 214 214 216 221 228 236 249 265 279 288 294 297 299 301
3 358 353 349 345 341 337 332 328 323 318 315 312 312 313 310 307 305 302 299 298 297 296 297 297 297 298 298 298 297 296 296 296 295 296 298 298 299 300 295 282 272 270 271 271 269 267 267 267 265 260 256 255 255 256 257 256 257 258 253 243 238 234 224 213 208 205 202 205 210 211 209 209 213 219 227 238 255 271 283 291 295 297 298 297
2 359 354 347 341 336 332 328 325 322 318 314 312 312 316 317 314 310 306 302 301 300 300 300 300 299 299 299 299 298 298 300 303 303 304 305 304 304 306 302 288 274 270 270 270 269 268 266 266 266 262 258 257 258 259 259 257 254 249 241 233 227 221 213 206 203 202 204 209 214 212 210 211 213 219 230 245 261 276 286 292 293 293 293 294
360 359 354 346 339 335 332 329 328 326 321 318 317 315 315 317 320 318 313 308 306 304 302 300 298 297 296 296 296 296 297 300 303 305 305 304 303 304 304 299 285 273 269 267 265 265 266 266 267 268 268 266 264 263 262 259 253 245 234 224 218 214 210 205 201 201 203 204 208 211 210 212 215 218 224 238 253 267 279 285 287 287 289 293 301
355 355 352 346 339 335 332 332 334 331 326 322 323 322 319 320 324 324 320 317 313 307 302 297 294 292 292 293 294 296 299 302 303 303 302 301 301 300 297 291 282 274 269 265 262 262 263 264 267 269 267 265 262 259 259 255 245 236 226 215 207 204 202 199 197 198 201 201 202 205 209 213 218 224 234 248 261 271 278 281 284 288 295 302 310
350 350 349 347 344 339 335 334 335 335 333 330 331 334 333 333 334 333 328 324 316 300 293 293 293 291 292 296 299 302 305 305 303 301 300 300 299 295 287 281 279 276 270 264 262 261 261 261 264 267 268 266 260 254 251 247 238 230 221 211 203 197 194 194 192 191 192 193 197 203 210 216 223 233 245 257 267 273 276 281 288 295 301 308 314
347 348 349 350 347 341 338 337 336 337 338 339 340 343 345 346 346 343 337 334 331 309 283 289 299 301 301 303 306 308 307 304 300 298 298 298 298 293 285 279 277 275 271 267 264 262 260 257 256 260 266 267 261 253 249 243 233 222 213 207 200 192 187 185 184 181 181 185 194 205 214 222 231 245 258 265 270 274 280 290 299 307 313 318 321
346 347 350 351 348 340 334 333 332 334 336 339 341 346 350 352 350 343 339 343 351 359 1 341 326 320 313 308 308 310 310 308 305 301 299 298 296 292 286 281 277 273 271 270 268 266 263 259 257 260 264 265 261 255 250 242 230 216 207 201 193 185 178 175 175 177 183 191 201 212 221 231 246 262 269 270 274 284 298 310 318 322 323 323 327
345 347 349 351 349 341 332 328 329 333 337 337 342 352 356 351 345 342 344 350 355 360 -0 353 345 338 324 307 303 305 309 309 307 307 308 305 299 292 287 282 277 272 270 270 271 270 269 267 266 265 263 261 259 254 248 240 228 211 198 190 182 176 174 176 180 185 193 201 210 219 228 238 252 262 266 272 288 306 318 323 324 323 323 325 332
342 345 346 347 346 341 336 334 337 344 344 341 347 6 0 347 344 345 350 357 360 360 359 355 354 355 351 326 311 311 313 313 320 338 347 338 321 308 301 296 290 284 278 274 272 272 273 275 275 272 265 257 252 249 244 232 213 194 184 181 180 181 185 188 189 192 199 207 216 223 228 232 237 242 257 285 309 319 323 323 320 320 324 325 333
340 341 343 344 341 338 338 342 347 351 348 346 355 6 345 344 350 357 3 6 3 359 357 355 352 353 354 347 338 333 331 337 9 22 15 7 359 349 337 328 319 308 298 291 284 281 284 284 281 275 266 256 250 244 230 208 190 181 180 183 187 189 190 190 188 189 195 204 212 215 214 212 214 230 264 299 313 317 317 313 308 316 324 316 270
338 339 340 342 341 338 339 344 347 348 347 346 348 350 350 358 8 12 12 9 2 358 358 357 352 348 347 347 347 345 343 358 27 21 10 6 2 356 353 353 347 334 321 312 306 302 299 293 284 272 261 255 248 232 208 190 183 184 187 187 185 185 185 185 184 183 183 187 194 198 193 188 203 243 279 298 304 309 313 319 329 350 10 170 169
337 338 340 343 342 339 340 344 348 352 356 355 350 356 6 12 11 7 5 2 357 354 354 355 352 346 342 345 352 357 354 360 12 11 7 5 359 353 356 4 2 353 343 334 326 319 310 297 283 269 256 249 235 211 193 184 183 184 181 178 177 175 173 173 172 168 163 166 178 185 179 180 216 266 282 289 297 313 346 358 10 45 84 88 21
335 337 340 343 342 340 341 345 350 357 1 359 354 357 5 6 3 359 356 354 349 346 347 349 349 346 340 341 348 356 353 351 354 357 0 3 359 355 359 6 7 2 355 344 332 325 316 297 278 261 243 223 201 186 179 176 176 175 173 173 173 169 165 162 157 148 145 156 168 174 173 180 229 271 278 284 302 348 11 14 39 69 68 35 7
334 338 343 342 338 338 341 343 347 355 0 356 351 355 359 359 356 353 351 350 348 345 344 346 349 348 344 341 341 344 349 354 355 351 353 0 1 357 358 4 10 15 15 4 346 336 338 265 211 207 195 180 171 167 166 167 170 173 174 174 172 166 162 156 142 133 143 162 174 178 183 196 237 272 281 287 318 4 19 58 89 86 64 17 357
333 343 347 342 333 333 336 332 326 333 347 348 343 343 347 348 349 349 351 352 351 348 350 360 12 16 13 6 358 352 351 356 357 353 354 5 6 359 354 359 7 14 16 10 1 4 90 137 156 163 163 161 161 163 166 168 169 168 164 162 160 156 149 136 124 128 147 169 177 183 200 223 252 275 280 284 324 34 93 123 116 93 43 2 6
331 344 349 344 335 330 331 328 315 301 309 328 337 335 334 335 340 347 352 352 351 354 10 36 43 39 34 30 22 12 3 1 1 2 13 22 7 350 346 353 359 3 3 -0 355 355 97 140 145 152 158 162 164 163 159 152 144 136 133 133 133 128 119 112 112 124 144 163 174 192 219 245 262 271 271 270 270 122 143 148 126 6 313 358 19
329 341 346 346 344 334 324 323 318 300 292 297 306 314 320 325 333 343 351 353 355 4 39 57 51 45 42 39 34 30 28 29 29 28 29 25 3 339 329 333 339 339 340 343 345 346 146 163 155 149 149 147 142 132 122 113 111 114 114 109 105 104 106 111 126 159 201 242 249 238 241 253 262 263 257 240 194 172 170 164 58 19 330 9 26
329 339 343 346 350 348 330 315 307 299 295 291 291 296 302 315 332 342 350 357 -0 11 46 57 50 44 41 39 38 38 40 44 49 47 37 22 6 348 328 319 323 326 325 329 339 1 83 131 130 121 118 116 113 111 110 110 113 113 108 103 103 111 125 149 194 232 254 261 255 241 241 248 249 240 222 206 192 173 161 147 96 330 312 8 34
323 336 340 345 353 357 348 327 305 292 290 289 290 294 290 300 336 349 354 2 10 25 49 53 47 40 37 37 37 40 43 45 46 43 36 23 14 12 10 7 6 3 1 10 50 78 91 99 103 105 106 108 110 112 114 113 111 108 104 105 116 144 188 224 240 247 250 246 232 224 228 227 217 203 190 172 143 126 131 131 102 57 122 65 44
314 325 336 346 356 2 358 351 337 311 295 287 283 279 270 297 343 353 360 14 31 45 52 48 40 35 34 35 35 38 43 45 43 43 44 44 43 45 50 53 53 56 65 79 87 90 92 94 96 96 95 95 97 99 104 108 110 113 118 131 165 214 239 246 243 236 229 222 215 213 210 198 185 177 163 142 122 118 131 105 67 68 92 96 54
301 311 328 345 358 4 5 7 4 352 340 331 280 208 211 342 345 349 13 47 59 59 54 47 40 36 36 36 36 40 45 48 48 49 52 55 57 61 65 66 67 71 77 81 86 88 88 89 88 86 83 85 89 94 103 111 117 127 143 155 183 223 233 228 214 198 189 188 186 180 171 163 157 154 149 143 132 102 89 77 57 49 57 69 54
286 297 319 341 356 5 8 10 8 7 19 62 94 104 99 40 359 14 51 70 72 64 56 52 49 45 40 37 38 43 49 53 57 60 61 61 62 63 65 69 76 82 84 85 86 86 86 86 85 84 84 87 92 97 103 107 107 115 130 135 150 178 185 175 162 153 148 145 143 140 140 143 147 148 149 150 132 69 65 68 54 38 35 40 43
278 287 306 331 356 8 7 1 2 7 22 65 96 104 102 70 36 48 67 82 87 73 64 60 55 50 47 45 47 51 54 58 62 67 68 69 68 67 68 74 81 86 88 86 82 79 79 81 81 79 79 81 84 88 90 91 92 99 117 132 141 145 145 142 140 136 131 127 126 129 134 140 146 152 154 152 124 44 41 44 37 25 20 24 28